Location: Evergreen (historical)
(33.9686°N, 118.0476°W)
Time: 00:09:54
(UTC+00:00)

Daily predictions for brighter satellites

Satellite Brightness Start Highest point End
(mag) Time Altitude Azimuth Time Altitude Azimuth Time Altitude Azimuth
ATLAS 2AS CENTAUR R/B 4.4 01:01:29 10° WSW 01:08:29 33° NW 01:15:36 10° NNE
Cosmos 2333 Rocket 2.6 01:03:04 10° SSW 01:08:45 72° WNW 01:14:31 10° NNE
Envisat 3.9 01:05:43 10° SE 01:09:55 27° ENE 01:14:09 10° NNE
Cosmos 1536 4.4 01:08:17 10° NE 01:10:43 15° ENE 01:13:08 10° ESE
Meteor 1-11 Rocket 4.4 01:07:04 10° N 01:12:34 37° ENE 01:17:59 10° SE
Meteor 1-27 Rocket 4.1 01:07:13 10° SSE 01:12:35 46° E 01:18:04 10° NNE
Okean O Rocket 3.1 01:08:35 10° S 01:12:41 41° W 01:16:48 10° NNW
STARLINK-60 4.3 01:11:47 10° S 01:14:43 28° SE 01:17:41 10° ENE
Cosmos 1602 4.4 01:13:49 10° NNW 01:17:37 60° W 01:21:27 10° S
Cosmos 2242 Rocket 4.4 01:13:54 10° SSE 01:17:52 31° E 01:21:51 10° NNE
Cosmos 2237 Rocket 2.5 01:14:41 10° S 01:20:07 48° ESE 01:25:34 10° NNE
H-2A R/B 2.6 01:16:38 10° SSE 01:20:18 61° ENE 01:23:58 10° N
Lacrosse 5 rocket 1.9 01:16:01 10° SW 01:20:21 57° NW 01:24:28 10° NNE
OAO 2 Rocket 3.5 01:16:29 10° WSW 01:21:26 65° SSE 01:26:22 11° E
Cosmos 1500 3.8 01:18:59 10° NNE 01:22:26 33° E 01:25:49 10° SE
Okean-O 3.1 01:19:58 10° SE 01:24:05 39° ENE 01:28:12 10° N
Cosmos 1862 Rocket 3.5 01:19:51 10° S 01:24:06 61° E 01:28:24 10° NNE
Cosmos 371 Rocket 4.3 01:19:42 10° NNW 01:24:27 53° WSW 01:29:11 10° S
Cosmos 1340 3.7 01:21:34 10° NNW 01:25:15 51° W 01:28:54 10° S
Feng Yun 1-1 Rocket 4.1 01:20:34 10° SSE 01:25:59 81° ENE 01:31:23 10° N
OAO 3 Rocket 3.5 01:24:17 10° WSW 01:28:54 56° SSE 01:33:04 13° E
Shenzhou-11 Module 4.0 01:28:43 10° NW 01:30:26 15° N 01:32:04 11° NNE
AQUARIUS 4.1 01:26:15 10° SSE 01:30:44 83° E 01:35:14 10° N
SL-4 R/B 4.1 01:29:01 10° WNW 01:31:23 16° NNW 01:33:52 10° NNE
Cosmos 1844 4.2 01:29:28 10° NNW 01:35:05 65° WSW 01:40:36 10° S
YAOGAN 6 3.5 01:32:53 10° SE 01:35:47 25° ENE 01:38:44 10° NNE
Cosmos 2219 Rocket 3.5 01:33:15 10° SW 01:38:27 39° WNW 01:43:43 10° N
CORIOLIS 4.2 01:36:15 10° SSE 01:41:41 87° WSW 01:47:10 10° NNW
NOAA 12 4.0 01:37:42 10° SSE 01:42:59 72° ENE 01:48:16 10° N
FALCON 9 DEB 3.7 01:40:10 10° SSW 01:43:29 43° SE 01:45:20 22° ENE
Cosmos 1092 Rocket 4.1 01:40:40 10° SSE 01:46:49 57° E 01:52:58 10° NNE
Cosmos 1980 3.7 01:44:33 10° SSW 01:50:11 84° WNW 01:55:52 10° NNE
CENTAUR R/B 3.8 01:42:07 10° NW 01:50:21 62° WSW 01:58:54 10° SSE
Cosmos 1263 4.2 01:47:30 10° S 01:50:56 61° E 01:53:24 14° NNE
Cosmos 1844 Rocket 4.5 01:46:33 10° NW 01:51:32 34° WSW 01:56:31 10° SSW
NOSS 0 Rocket 4.3 01:47:20 10° SSW 01:53:28 67° WNW 01:59:41 10° NNE
Aureole 1 Rocket 2.4 01:50:55 10° S 01:53:52 43° ESE 01:54:45 32° ENE
SL-8 R/B 3.6 01:50:46 10° NW 01:55:36 71° NE 01:59:43 14° ESE
STARLINK-52 3.5 01:56:27 10° SSW 01:59:50 49° SE 02:00:50 36° E
CSL-04 Rocket 3.9 01:58:33 10° SE 02:03:27 40° ENE 02:08:20 10° N
Cosmos 1908 Rocket 3.6 02:01:05 10° N 02:05:21 51° E 02:09:35 10° SSE
COSMO-SKYMED 1 2.7 02:01:33 10° N 02:05:53 75° WNW 02:10:12 10° SSW
Cosmos 1666 2.8 02:03:41 10° N 02:07:18 47° E 02:10:53 10° SSE
STARLINK-29 3.1 02:04:31 10° SW 02:08:01 73° SE 02:08:53 47° ENE
YAOGAN 1 2.8 02:05:26 10° SE 02:09:32 44° ENE 02:13:39 10° N
ERBS 2.3 02:09:16 10° NW 02:12:37 78° SW 02:14:23 25° SSE
FengYun 1-2 T 4.1 02:08:36 10° SSE 02:14:04 84° ENE 02:19:35 10° NNW
CSL-04 Debris 4.2 02:09:29 10° SSE 02:14:47 54° ENE 02:20:06 10° N
USA 267 4.1 02:09:04 10° SSE 02:15:23 52° SW 02:21:45 10° NW
USA 116 4.4 02:17:09 10° N 02:22:32 84° WNW 02:27:36 10° SSW
OAO 1 Rocket 4.4 02:18:05 10° W 02:23:24 81° SSW 02:25:25 39° ESE
ADEOS Rocket 4.5 02:27:51 16° SE 02:27:51 16° SE 02:29:19 10° SSE
ATLAS 3B R/B 4.1 02:22:57 10° NW 02:29:06 38° WSW 02:35:25 10° S
Okean 1-7 3.0 02:26:19 10° S 02:30:36 79° W 02:32:56 27° N
NOAA 11 4.1 02:28:10 10° SSE 02:33:30 60° ENE 02:38:53 10° N
Cosmos 1428 Rocket 4.3 02:28:54 10° S 02:35:01 86° E 02:41:15 10° N
Meteor 1-19 Rocket 4.3 02:33:07 10° SSE 02:38:08 50° ESE 02:38:08 50° ESE
Cosmos 1553 Rocket 4.5 02:32:46 10° N 02:40:52 36° SE 02:45:00 10° SSE
CZ-4 R/B 2.2 02:37:58 10° S 02:41:49 49° W 02:45:37 10° NNW
Cosmos 2278 Rocket 2.7 02:38:00 10° NNW 02:43:35 60° WSW 02:49:06 10° S
Cosmos 1174 4.4 02:42:33 10° SSW 02:48:15 74° WNW 02:48:58 62° N
Cosmos 292 Rocket 4.2 02:43:30 10° NNW 02:47:04 49° N 02:47:04 49° N
Atlas Centaur 2 3.7 02:42:41 10° W 02:50:31 50° SSW 02:55:06 27° SE
SL-16 R/B 2.2 02:45:01 10° SSW 02:50:41 77° WNW 02:52:29 45° N
Cosmos 2026 Rocket 4.4 02:45:03 10° SSW 02:51:01 59° W 02:57:00 10° N
Cosmos 614 Rocket 4.3 02:53:48 10° SSW 02:58:51 61° WNW 02:59:46 52° NNW
Cosmos 407 Rocket 3.8 02:55:33 10° SSW 03:00:38 62° WNW 03:01:28 54° NNW
Cosmos 2237 Rocket 4.4 03:00:11 10° WSW 03:04:23 21° WNW 03:08:37 10° N
Cosmos 1655 Rocket 3.8 02:58:38 10° S 03:04:58 81° E 03:05:06 81° ENE
OAO 2 Rocket 3.7 03:01:10 10° W 03:05:19 59° WNW 03:05:19 59° WNW
Cosmos 1140 Rocket 3.9 03:02:35 10° SSW 03:06:33 55° SSW 03:06:33 55° SSW
CZ-3B R/B 4.2 03:02:36 10° SSW 03:08:40 23° SE 03:08:40 23° SE
OAO 3 Rocket 4.2 03:07:35 10° W 03:10:52 44° W 03:10:52 44° W
Geosat 4.5 03:12:58 58° W 03:12:58 58° W 03:17:32 10° SW
SL-16 R/B 4.0 11:47:40 25° NE 11:48:45 26° ENE 11:53:26 10° ESE
